Location: Elstree
(51.6403°N, 0.2969°W)
Time: 09:51:23
(UTC+00:00)

Cosmos 1354 Rocket - Visible Passes

Search period start: 18 June 2021 00:00
Search period end: 28 June 2021 00:00
Orbit: 764 x 784 km, 74.0° (Epoch: 17 June)

Date Brightness Start Highest point End Pass type
(mag) Time Alt. Az. Time Alt. Az. Time Alt. Az.
18 Jun 5.8 21:13:52 10° N 21:18:03 23° NE 21:22:13 10° E visible
18 Jun 4.0 22:55:34 10° NNW 23:00:56 83° WSW 23:04:37 21° SSE visible
19 Jun 6.1 00:39:28 10° WNW 00:42:16 14° W 00:44:59 10° SW visible
19 Jun 4.2 22:20:11 10° NNW 22:25:32 68° ENE 22:29:48 16° SE visible
20 Jun 5.6 00:03:11 10° NW 00:07:13 22° W 00:10:10 14° SW visible
20 Jun 4.7 21:44:53 10° NNW 21:50:03 46° ENE 21:55:00 11° SE visible
20 Jun 5.1 23:27:21 10° NW 23:32:06 33° WSW 23:35:22 17° SSW visible
21 Jun 5.2 21:09:39 10° NNW 21:14:29 33° NE 21:19:16 10° ESE visible
21 Jun 4.6 22:51:44 10° NNW 22:56:54 50° WSW 23:00:36 18° S visible
22 Jun 4.1 22:16:15 10° NNW 22:21:37 76° WSW 22:25:51 16° SSE visible
23 Jun 6.2 00:00:30 10° WNW 00:02:51 13° W 00:05:12 10° WSW visible
23 Jun 4.2 21:40:52 10° NNW 21:46:14 74° ENE 21:51:08 12° SSE visible
23 Jun 5.9 23:24:01 10° NW 23:27:50 20° W 23:31:31 10° SW visible
24 Jun 4.6 21:05:32 10° NNW 21:10:45 50° ENE 21:15:56 10° SE visible
24 Jun 5.4 22:48:07 10° NW 22:52:44 30° W 22:56:49 12° SSW visible
25 Jun 4.8 22:12:28 10° NW 22:17:32 46° WSW 22:22:10 12° S visible
26 Jun 4.3 21:36:57 10° NNW 21:42:17 69° WSW 21:47:31 10° SSE visible
26 Jun 6.4 23:21:39 10° WNW 23:23:26 12° W 23:25:13 10° WSW visible
27 Jun 6.1 22:44:52 10° NW 22:48:26 18° W 22:51:59 10° SW visible
